Current weather by "City, St" or "zip code"  
 
Advertise Here

Current Conditions: Beaver County Airport, PA

Partly Cloudy


60.0 F

Last Updated on May 12 2021, 12:55 pm EDT
Humidity: 39%
Wind Speed: N 6.9 mph
Barometer 30.33 in
Dewpoint: 34.7 F
Visibility: 10.00 mi
Precip: --
Heat Index: NA
Wind Chill: 59 F
Current conditions at:

Beaver County Airport, PA (KBVI)

Lat: 40.77351 Lon: 80.38248

Local Radar Image active severe weather and emergency alerts image image weather storm and storm spotter reports image weather observation monitoring service image
Local
Radar
Active
Alerts
Storm Reports Obs
Monitoring

Sign-up For Email & Text Message Weather Alert Notification Services


Advertise Here

Observation History for Beaver County Airport, PA


Time Wind
(mph)
Vis
(mi)
Weather Precip (in) Temperature (F) Relative
Humidity
Wind
Chill
(F)
Heat
Index
(F)
Pressure
Air Dwpt altimeter
(in)
sea level
(mb)
Rmks
12:55 pm EDT N 6.9 10.00 Partly Cloudy -- 60.0 34.7 39% 59 NA 30.33 M
11:55 am EDT N 10.4 G 20.7 10.00 Partly Cloudy -- 56.0 34.7 44% 53 NA 30.34 M
10:55 am EDT NW 5.8 10.00 Partly Cloudy -- 55.0 39.2 56% 54 NA 30.35 M
9:55 am EDT N 6.9 10.00 Fair -- 51.0 38.8 64% 48 NA 30.35 M
8:55 am EDT N 5.8 10.00 Fair -- 46.0 37.4 71% 43 NA 30.35 M
7:55 am EDT NW 5.8 10.00 Fair -- 43.0 36.9 79% 39 NA 30.34 M
6:55 am EDT N 0.0 10.00 Fair -- 37.0 34.2 89% NA NA 30.32 M
5:55 am EDT W 3.5 10.00 Fair -- 37.0 33.6 89% NA NA 30.30 M
4:55 am EDT W 3.5 10.00 Overcast -- 38.0 32.9 83% NA NA 30.29 M
3:55 am EDT NW 3.5 10.00 Mostly Cloudy -- 38.0 32.9 81% NA NA 30.28 M
2:55 am EDT NW 4.6 10.00 Overcast -- 39.0 32.0 77% 36 NA 30.29 M
1:55 am EDT NW 4.6 10.00 Fair -- 38.0 30.0 73% 34 NA 30.29 M
12:55 am EDT N 0.0 10.00 Fair -- 39.0 29.7 70% NA NA 30.28 M
11:55 pm EDT W 4.6 10.00 Fair -- 40.0 29.1 65% 37 NA 30.29 M
10:55 pm EDT W 3.5 10.00 Fair -- 41.0 28.9 62% NA NA 30.29 M
9:55 pm EDT NW 3.5 10.00 Fair -- 42.0 28.4 58% NA NA 30.27 M
8:55 pm EDT N 3.5 10.00 Partly Cloudy -- 44.0 27.5 52% NA NA 30.25 M
7:55 pm EDT N 3.5 10.00 Fair -- 48.0 25.7 42% NA NA 30.23 M
6:55 pm EDT NW 10.4 G 19.6 10.00 Partly Cloudy -- 51.0 25.9 38% 47 NA 30.21 M
5:55 pm EDT NW 9.2 G 16.1 10.00 Partly Cloudy -- 52.0 25.9 36% 49 NA 30.18 M
4:55 pm EDT N 8.1 10.00 Mostly Cloudy -- 52.0 28.9 41% 49 NA 30.17 M
3:55 pm EDT NW 10.4 G 19.6 10.00 Partly Cloudy -- 54.0 29.7 40% 51 NA 30.17 M
2:55 pm EDT NW 8.1 G 17.3 10.00 Mostly Cloudy -- 54.0 29.3 39% 52 NA 30.18 M
1:55 pm EDT W 15.0 G 19.6 10.00 Partly Cloudy -- 54.0 28.0 37% 50 NA 30.17 M

Regional Weather Observation


Beaver County Airport, PA (KBVI)

Partly Cloudy
60.0 F

Zelienople Municipal Airport, PA (KPJC)

Mostly Cloudy
57.0 F

Youngstown, Youngstown-Warren Regional Airport, OH (KYNG)

Mostly Cloudy
58.0 F

Pittsburgh, Pittsburgh International Airport, PA (KPIT)

Partly Cloudy
58.0 F

Port Meadville Airport, PA (KGKJ)

Mostly Cloudy
57.0 F

Wheeling, Wheeling Ohio County Airport, WV (KHLG)

Partly Cloudy
57.0 F
Advertise Here

Advertise Here